CW9533 Torre Faro Messina IT current weather conditions

sailwx.info

Wind from 326 at 6 knots gusting 9

Air temperature 27.8° C
Dewpoint 19.8° C

Last reported at 2017-Jul-27 12:59 UTC.
Time now 2017-Jul-27 14:52 UTC

Location: N 38°16' E 015°39'.
View on Google Maps.

See reports from other nearby stations

  
Tides and Currents Weather Stations Pressure Air Temp Water Temp Dewpoint Dewpoint Depression Visibility Wind Speed Wind Dir Waves Ship Positions
date/time (UTC)wind fromknots sea level pressurealtimeterstation pressurevisibilityair tempwater tempwave heightnotes
2017-Jul-27 12:59 326 6 gusting 9 27.8
2017-Jul-27 12:44 291 5 gusting 12 28.3
2017-Jul-27 12:30 355 6 gusting 10 28.3
2017-Jul-27 12:14 344 5 gusting 11 28.3
2017-Jul-27 11:59 340 6 gusting 11 28.3
2017-Jul-27 11:44 355 5 gusting 10 27.8
2017-Jul-27 11:29 349 6 gusting 10
2017-Jul-27 11:14 360 2 gusting 8 27.8
2017-Jul-27 10:59 331 0 gusting 8 27.2
2017-Jul-27 10:44 321 6 gusting 10
2017-Jul-27 10:29 315 3 gusting 10 27.8
2017-Jul-27 10:14 317 5 gusting 10 27.8
2017-Jul-27 09:59 012 2 gusting 8 27.8
2017-Jul-27 09:43 302 4 gusting 11 27.8
2017-Jul-27 09:28 331 3 gusting 10 27.8
2017-Jul-27 09:13 338 4 gusting 10
2017-Jul-27 08:58 351 2 gusting 8 28.3
2017-Jul-27 08:43 337 3 gusting 9 27.8
2017-Jul-27 08:28 350 5 gusting 9 27.2
2017-Jul-27 08:13 360 3 gusting 8 27.2
2017-Jul-27 07:58 340 3 gusting 7 26.7
2017-Jul-27 07:43 311 1 gusting 6 26.7
2017-Jul-27 07:28 360 4 gusting 8 26.1
2017-Jul-27 07:13 310 2 gusting 8 26.7
2017-Jul-27 06:58 355 4 gusting 8 26.1
2017-Jul-27 06:43 318 5 gusting 9 26.1
2017-Jul-27 06:28 344 3 gusting 9
2017-Jul-27 06:12 325 5 gusting 9 24.4
2017-Jul-27 05:57 293 5 gusting 16 24.4
2017-Jul-27 05:42 315 6 gusting 12
2017-Jul-27 05:27 334 4 gusting 10 25.0
2017-Jul-27 05:12 350 2 gusting 8 25.0
2017-Jul-27 04:57 331 6 gusting 10
2017-Jul-27 04:42 009 4 gusting 8 25.0
2017-Jul-27 04:27 355 1 gusting 8 24.4
2017-Jul-27 04:12 309 3 gusting 8
2017-Jul-27 03:57 342 2 gusting 7 24.4
2017-Jul-27 03:42 005 2 gusting 6 25.0
2017-Jul-27 03:27 327 4 gusting 8 25.0
2017-Jul-27 03:12 018 5 gusting 9 25.0
2017-Jul-27 02:56 355 2 gusting 10 25.0
2017-Jul-27 02:41 013 0 gusting 6 24.4
2017-Jul-27 02:26 005 25.0
2017-Jul-27 02:11 032 0 gusting 6
2017-Jul-27 01:56 016 0 gusting 5
2017-Jul-27 01:41 063 23.9
2017-Jul-27 01:26 055
2017-Jul-27 01:11 025 23.9
2017-Jul-27 00:56 025 23.9
2017-Jul-27 00:41 019
2017-Jul-27 00:26 016 23.9
2017-Jul-27 00:11 355 23.3
2017-Jul-26 23:56 256 23.3
2017-Jul-26 23:40 257 23.3
2017-Jul-26 23:25 257 23.3
2017-Jul-26 23:10 257 23.3
2017-Jul-26 22:55 256 23.3
2017-Jul-26 22:40 256 22.8
2017-Jul-26 22:25 257 23.3
2017-Jul-26 22:10 259 23.3
2017-Jul-26 21:55 073
2017-Jul-26 21:40 043 0 gusting 6 22.8
2017-Jul-26 21:25 058 22.2
2017-Jul-26 21:10 085
2017-Jul-26 20:57 355 2 gusting 16 22.8
2017-Jul-26 20:40 350 5 gusting 11 25.6
2017-Jul-26 20:24 290 0 gusting 6
2017-Jul-26 20:09 275 25.6
2017-Jul-26 19:55 293 0 gusting 8 25.6
2017-Jul-26 19:39 342 3 gusting 9
2017-Jul-26 19:24 327 6 gusting 12 25.6
2017-Jul-26 19:09 324 4 gusting 12 25.6
2017-Jul-26 18:54 307 25.6
2017-Jul-26 18:39 291 2 gusting 11 25.6
2017-Jul-26 18:24 290 5 gusting 11 25.6
2017-Jul-26 18:09 310 6 gusting 11
2017-Jul-26 17:54 313 5 gusting 13 26.1
2017-Jul-26 17:39 305 6 gusting 12
2017-Jul-26 17:24 327 6 gusting 12 26.1
2017-Jul-26 17:09 336 6 gusting 10 26.1
2017-Jul-26 16:53 305 6 gusting 13
2017-Jul-26 16:38 320 5 gusting 12 26.7
2017-Jul-26 16:23 301 5 gusting 13 27.2
2017-Jul-26 16:08 355 5 gusting 12
2017-Jul-26 15:53 294 6 gusting 13 27.2
2017-Jul-26 15:38 313 2 gusting 6 26.7
2017-Jul-26 15:23 346
2017-Jul-26 15:08 355 3 gusting 9 27.2
2017-Jul-26 14:53 360 27.2
2017-Jul-26 14:38 315 27.8
2017-Jul-26 14:23 057 1 gusting 4 27.8
2017-Jul-26 14:08 060 0 gusting 5 27.2
2017-Jul-26 13:53 045 1 gusting 5 26.7
2017-Jul-26 13:37 350 2 gusting 7 27.2
2017-Jul-26 13:22 350 2 gusting 9 27.8
2017-Jul-26 13:07 312 2 gusting 7 27.8
2017-Jul-26 12:52 313 1 gusting 8 27.2
2017-Jul-26 12:37 294 4 gusting 12
2017-Jul-26 12:22 327 1 gusting 9 25.6
2017-Jul-26 12:07 279 4 gusting 12 26.7
2017-Jul-26 11:52 317 2 gusting 11
2017-Jul-26 11:37 298 5 gusting 14 27.8
2017-Jul-26 11:22 326 6 gusting 15 27.2
2017-Jul-26 11:07 306 6 gusting 13
2017-Jul-26 10:52 053 1 gusting 7 27.2
2017-Jul-26 10:37 360 1 gusting 11 26.7
2017-Jul-26 10:22 014 1 gusting 8 24.4
2017-Jul-26 10:06 338 8 gusting 25 24.4
2017-Jul-26 09:51 315 7 gusting 14 27.8
2017-Jul-26 09:36 298 6 gusting 15 27.8
2017-Jul-26 09:21 036 7 gusting 14 28.3
2017-Jul-26 09:06 333 4 gusting 14 28.9
2017-Jul-26 08:51 319 4 gusting 16 27.8
2017-Jul-26 08:36 311 5 gusting 16 27.2
2017-Jul-26 08:21 294 5 gusting 15
2017-Jul-26 08:06 264 3 gusting 12 27.8
2017-Jul-26 07:51 318 27.8
2017-Jul-26 07:36 308 4 gusting 13
2017-Jul-26 07:21 264 3 gusting 15 27.2
2017-Jul-26 07:06 355 2 gusting 13 26.7
2017-Jul-26 06:51 284 2 gusting 11
2017-Jul-26 06:35 311 2 gusting 8 25.6
2017-Jul-26 06:05 233
2017-Jul-26 05:51 240 25.0
2017-Jul-26 05:35 259 25.0
2017-Jul-26 05:20 263
2017-Jul-26 05:05 283 25.6
2017-Jul-26 04:50 253 25.6
2017-Jul-26 04:35 281 1 gusting 7 25.6
2017-Jul-26 04:20 273 0 gusting 6 25.6
2017-Jul-26 04:05 248 0 gusting 6
2017-Jul-26 03:50 270 1 gusting 6 25.6
2017-Jul-26 03:34 280 2 gusting 8 25.6
2017-Jul-26 03:19 283 4 gusting 12
2017-Jul-26 03:04 292 6 gusting 12 25.6
2017-Jul-26 02:49 318 0 gusting 10 25.6
2017-Jul-26 02:34 300 3 gusting 9
2017-Jul-26 02:19 311 0 gusting 8 25.6
2017-Jul-26 02:04 309 25.6
2017-Jul-26 01:49 289
2017-Jul-26 01:34 300 0 gusting 11 25.6
2017-Jul-26 01:19 318 4 gusting 10 25.6
2017-Jul-26 01:04 323 5 gusting 10 25.6
2017-Jul-26 00:49 005 2 gusting 8 25.6
2017-Jul-26 00:34 333 3 gusting 9 25.6
2017-Jul-26 00:19 308 25.6
2017-Jul-26 00:03 285 25.6
2017-Jul-25 23:48 274
2017-Jul-25 23:33 331 1 gusting 6 25.6
2017-Jul-25 23:18 315 26.1
2017-Jul-25 23:03 315
2017-Jul-25 22:48 299 25.6
2017-Jul-25 22:33 300 25.6
2017-Jul-25 22:18 303
2017-Jul-25 22:03 298 26.1
2017-Jul-25 21:48 318 0 gusting 8 26.1
2017-Jul-25 21:33 284 26.1
2017-Jul-25 21:18 312 26.1
2017-Jul-25 21:03 309 2 gusting 7 26.1
2017-Jul-25 20:48 313 26.1
2017-Jul-25 20:32 310 26.1
2017-Jul-25 20:17 304 26.1
2017-Jul-25 20:02 316 26.1
2017-Jul-25 19:47 033 26.1
2017-Jul-25 19:32 236
2017-Jul-25 19:17 304 26.1
2017-Jul-25 19:02 300 26.7
2017-Jul-25 18:47 309
2017-Jul-25 18:32 304 26.7
2017-Jul-25 18:17 280 1 gusting 8 26.7
2017-Jul-25 18:02 295 27.2
2017-Jul-25 17:47 267 1 gusting 9 27.2
2017-Jul-25 17:32 319 3 gusting 9 27.8
2017-Jul-25 17:17 307 2 gusting 9 27.8
2017-Jul-25 17:02 301 5 gusting 11 27.8
2017-Jul-25 16:46 322 3 gusting 9 27.8
2017-Jul-25 16:31 307 3 gusting 8 27.8
2017-Jul-25 16:16 360 1 gusting 10 27.8
2017-Jul-25 16:01 334 5 gusting 10 28.3
2017-Jul-25 15:46 305 3 gusting 10 28.3
2017-Jul-25 15:31 340 6 gusting 12 28.3
2017-Jul-25 15:16 306 6 gusting 13
2017-Jul-25 15:01 290 6 gusting 11 28.3
2017-Jul-25 14:47 314 5 gusting 10 28.9
2017-Jul-25 14:31 309 6 gusting 13
2017-Jul-25 14:16 014 6 gusting 13 29.4
2017-Jul-25 14:00 338 7 gusting 13 29.4